Lexington Weather

Lexington, Massachusetts, USA

78°F
8/3/2020 8:00am 
  • Lexington Conditions: Few Clouds
  • Temperature: 77.7°F / 25.4°CWarmer 1.2°F than last hour.
  • Dew Point: 72.9°FDecreased 1.8°Fsince last hour.
  • Relative Humidity: 85%Decreased 9.0% since last hour.
  • Wind: Wind from S S 1 mph, 10-min avg: 3 mph, gust: 10 mph
  • Barometer: 29.85 in Steady
  • Visibility: 10 miles
  • Rain Today: 0.00 in
  •   

Regional Weather Roundup
for Boston / Norton, MA

        
000
ASUS41 KBOX 312005
RWRBOX

REGIONAL WEATHER ROUNDUP
NATIONAL WEATHER SERVICE BOSTON/NORTON MA
400 PM EDT FRI JUL 31 2020

NOTE:  "FAIR" INDICATES FEW OR NO CLOUDS BELOW 12,000 FEET WITH NO 
SIGNIFICANT WEATHER AND/OR OBSTRUCTIONS TO VISIBILITY.

MAZALL-312100-
EASTERN MASSACHUSETTS
  
CITY           SKY/WX    TMP DP  RH WIND       PRES   REMARKS
BOSTON         PTSUNNY   76  67  73 E10       29.80F                  
BEVERLY        SUNNY     80  63  55 SE10      29.79S                  
LAWRENCE       SUNNY     85  64  49 E7        29.80F                  
BEDFORD        MOSUNNY   84  63  49 E7        29.77F                  
BLUE HILL      NOT AVBL                                               
NORWOOD        SUNNY     86  60  41 NE9       29.78F                  
MARSHFIELD     SUNNY     79  72  78 NE10      29.79F                  
PLYMOUTH       MOSUNNY   80  66  62 NE9       29.79F                  
TAUNTON        PTSUNNY   88  65  46 NE3       29.77F HX  90           
NEW BEDFORD    MOSUNNY   85  67  54 CALM      29.77F                  
$$

MAZALL-312100-
CAPE COD AND THE ISLANDS
  
CITY           SKY/WX    TMP DP  RH WIND       PRES   REMARKS
FALMOUTH       PTSUNNY   79  70  73 CALM      29.79F                  
HYANNIS        CLOUDY    80  66  62 N7        29.78F                  
CHATHAM        PTSUNNY   76  67  73 SE3       29.81S                  
PROVINCETOWN   MOSUNNY   78  71  79 N7        29.80S                  
NANTUCKET      CLOUDY    75  70  84 S3        29.79F                  
MARTHAS VNYRD  PTSUNNY   78  68  71 CALM      29.79F                  
$$
 
MAZALL-312100-
CENTRAL AND WESTERN MASSACHUSETTS
  
CITY           SKY/WX    TMP DP  RH WIND       PRES   REMARKS
WORCESTER      PTSUNNY   84  57  39 N7        29.83S                  
FITCHBURG      SUNNY     87  57  35 NW5       29.80S                  
ORANGE         PTSUNNY   87  57  35 N7        29.81F                  
SPRINGFIELD    NOT AVBL                                               
WESTFIELD      SUNNY     88  56  33 NE9       29.78F                  
NORTH ADAMS    CLOUDY    85  61  44 VRB6      29.81F                  
PITTSFIELD     MOSUNNY   83  61  47 W9        29.83F                  
$$
 
RIZALL-312100-
RHODE ISLAND
  
CITY           SKY/WX    TMP DP  RH WIND       PRES   REMARKS
PROVIDENCE     PTSUNNY   82  69  64 S8        29.78F                  
NEWPORT        PTSUNNY   81  69  67 VRB3      29.79F                  
BLOCK ISLAND   CLOUDY    73  66  78 NW3       29.81S                  
SMITHFIELD     SUNNY     86  64  47 NW3       29.80F                  
WESTERLY       PTSUNNY   80  66  62 S7        29.80S                  
$$
 
CTZALL-312100-
CONNECTICUT
  
CITY           SKY/WX    TMP DP  RH WIND       PRES   REMARKS
BRADLEY INTL   PTSUNNY   89  53  29 N9        29.78S                  
HARTFORD       MOSUNNY   86  64  47 S7        29.77F                  
BRIDGEPORT     MOSUNNY   78  67  68 S7        29.80S                  
DANBURY        MOSUNNY   81  65  58 SE6       29.81F                  
GROTON         PTSUNNY   77  68  73 S8        29.79S                  
NEW HAVEN      MOSUNNY   79  69  71 S5        29.80F                  
CHESTER        NOT AVBL                                               
MERIDEN        MOSUNNY   83  64  52 S7        29.78F                  
WILLIMANTIC    MOSUNNY   84  66  54 VRB3      29.79F                  
OXFORD         MOSUNNY   82  65  56 VRB3      29.82F                  
$$

MEZ002-015-021-024-NHZ003-005-008-011-012-014-VTZ005-008-312100-
NORTHERN NEW ENGLAND
  
CITY           SKY/WX    TMP DP  RH WIND       PRES   REMARKS
PORTLAND ME    MOSUNNY   81  62  52 S8        29.80F                  
BANGOR ME      MOSUNNY   82  60  47 NW7       29.79S                  
CONCORD NH     SUNNY     86  57  37 NW9       29.79F                  
MANCHESTER NH  PTSUNNY   90  53  28 NW10      29.77F                  
NASHUA NH      MOSUNNY   87  59  38 NW7       29.79F                  
PORTSMOUTH NH  PTSUNNY   81  59  46 SE9       29.78                   
JAFFREY NH     MOSUNNY   81  56  42 NE3       29.84S                  
KEENE NH       SUNNY     85  57  38 VRB3      29.81S                  
BURLINGTON VT  MOSUNNY   84  55  36 N12       29.84F                  
MT. WASHINGTON PTSUNNY   55  48  76 NW16        N/A                   
$$

NYZ052-076-312100-
EASTERN NEW YORK
  
CITY           SKY/WX    TMP DP  RH WIND       PRES   REMARKS
ALBANY         MOSUNNY   82  57  42 N7        29.82S                  
NEW YORK CITY  PTSUNNY   82  66  58 CALM      29.79F                  
$$
 
ANZALL-312100-
MARINE OBSERVATIONS
  
STATION/POSITION TIME  TEMP    WIND        PRES    VSBY  WAVE
                       AIR SEA DIR/SP/G                  HT/PER
                 (UTC) (F)     (DEG/KT/KT) (MB)    (MI)  (FT/S)
BOSTON BUOY      1950   73 75   50/  6/  8 1007.9F         1/10
BUZZARDS BAY     1900          240/  3/  3 1010.1F
NANTUCKET SOUND  1950      76  230/  6/  6 1008.1F         1
MASS BAY-STELLWA 1904   72      70/  6/  6 1007.3F  1 3/4  2/11
ISLE OF SHOALS   1900   72     120/  6/  6 1008.9F
S OF BLOCK IS    1926      75                N/A           2/ 6
$$

......................KEY.........................
  SKY/WX - SKY CONDITION/PRESENT WEATHER
  TMP    - TEMPERATURE IN FAHRENHEIT
  DWPT   - DEWPOINT IN FAHRENHEIT
  RH     - RELATIVE HUMIDITY IN PERCENT
  WIND   - DIRECTION AND SPEED IN MPH
  PRES   - MEAN SEA LEVEL PRESSURE IN INCHES OF HG
  WCI    - WIND CHILL INDEX
  VSB    - VISIBILITY IN MILES
  HX     - HEAT INDEX
  TC     - TEMPERATURE IN CELSIUS
  VRB    - VARIABLE WIND DIRECTION
  N/A    - NOT AVAILABLE
  
      

Other recent Regional Weather Roundups

Mon Aug 3, 7:04am

Mon Aug 3, 6:04am

Mon Aug 3, 5:04am

Mon Aug 3, 4:04am

Mon Aug 3, 3:04am

Mon Aug 3, 2:04am

Mon Aug 3, 1:04am

Mon Aug 3, 12:05am

Sun Aug 2, 11:04pm

Sun Aug 2, 10:04pm

Sun Aug 2, 9:04pm

Sun Aug 2, 8:04pm

Sun Aug 2, 7:04pm

Sun Aug 2, 6:04pm

Sun Aug 2, 5:04pm

Sun Aug 2, 4:05pm

Sun Aug 2, 3:04pm

Sun Aug 2, 2:05pm

Sun Aug 2, 1:04pm

Sun Aug 2, 12:04pm

Sun Aug 2, 11:04am

Sun Aug 2, 10:04am

Sun Aug 2, 9:05am

Sun Aug 2, 8:05am

Sun Aug 2, 7:04am

Sun Aug 2, 6:04am

Sun Aug 2, 5:04am

Sun Aug 2, 4:05am

Sun Aug 2, 3:04am

Sun Aug 2, 2:04am

Sun Aug 2, 1:04am

Sun Aug 2, 12:05am

Sat Aug 1, 11:04pm

Sat Aug 1, 10:04pm

Sat Aug 1, 9:04pm

Sat Aug 1, 8:05pm

Sat Aug 1, 7:04pm

Sat Aug 1, 6:04pm

Sat Aug 1, 5:05pm

Sat Aug 1, 4:05pm

Sat Aug 1, 3:04pm

Sat Aug 1, 2:04pm

Sat Aug 1, 1:04pm

Sat Aug 1, 12:04pm

Sat Aug 1, 11:05am

Sat Aug 1, 10:05am

Sat Aug 1, 9:04am

Sat Aug 1, 8:04am

Sat Aug 1, 7:04am

Sat Aug 1, 6:04am

Sat Aug 1, 5:04am

Sat Aug 1, 4:05am

Sat Aug 1, 3:04am

Sat Aug 1, 2:04am

Sat Aug 1, 1:04am

Sat Aug 1, 12:05am

Fri Jul 31, 11:05pm

Fri Jul 31, 10:04pm

Fri Jul 31, 9:04pm

Fri Jul 31, 8:05pm

Fri Jul 31, 7:05pm

Fri Jul 31, 6:04pm

Fri Jul 31, 5:04pm

Fri Jul 31, 3:04pm

Fri Jul 31, 2:05pm

Fri Jul 31, 1:04pm

Fri Jul 31, 12:04pm

Fri Jul 31, 11:04am

Fri Jul 31, 10:04am

Fri Jul 31, 9:04am

Fri Jul 31, 8:04am

Fri Jul 31, 7:04am

Fri Jul 31, 6:04am

Fri Jul 31, 5:04am

Fri Jul 31, 4:04am

Fri Jul 31, 3:04am

Fri Jul 31, 2:04am

Fri Jul 31, 1:05am

Fri Jul 31, 12:04am

Thu Jul 30, 11:04pm

Thu Jul 30, 10:04pm

Thu Jul 30, 9:04pm

Thu Jul 30, 8:04pm

Thu Jul 30, 7:05pm

Thu Jul 30, 6:04pm

Thu Jul 30, 5:04pm

Thu Jul 30, 4:05pm

Thu Jul 30, 3:04pm

Thu Jul 30, 2:05pm

Thu Jul 30, 1:04pm

Thu Jul 30, 12:04pm

Thu Jul 30, 11:04am

Thu Jul 30, 10:05am

Thu Jul 30, 9:04am

Thu Jul 30, 8:04am

Thu Jul 30, 7:04am

Thu Jul 30, 6:04am

Thu Jul 30, 5:04am

Thu Jul 30, 4:04am

Thu Jul 30, 3:04am

Thu Jul 30, 2:04am

Thu Jul 30, 1:04am

Thu Jul 30, 12:04am

Wed Jul 29, 11:04pm

Wed Jul 29, 10:04pm

Wed Jul 29, 9:04pm

Wed Jul 29, 8:04pm

Wed Jul 29, 7:05pm

Wed Jul 29, 6:05pm

Wed Jul 29, 5:04pm

Wed Jul 29, 4:04pm

Wed Jul 29, 3:04pm

Wed Jul 29, 2:04pm

Wed Jul 29, 1:05pm

Wed Jul 29, 12:05pm

Wed Jul 29, 11:04am

Wed Jul 29, 10:04am

Wed Jul 29, 9:04am

Wed Jul 29, 8:04am

Wed Jul 29, 7:04am

Wed Jul 29, 6:04am

Wed Jul 29, 5:04am

Wed Jul 29, 4:04am

Wed Jul 29, 3:04am

Wed Jul 29, 2:04am

Wed Jul 29, 1:04am

Wed Jul 29, 12:05am

Tue Jul 28, 11:05pm

Tue Jul 28, 10:05pm

Tue Jul 28, 9:04pm

Tue Jul 28, 8:04pm

Tue Jul 28, 7:04pm

Tue Jul 28, 6:04pm

Tue Jul 28, 5:04pm

Tue Jul 28, 4:05pm

Tue Jul 28, 3:05pm

Tue Jul 28, 2:04pm

Tue Jul 28, 1:05pm

Tue Jul 28, 12:04pm

Tue Jul 28, 11:04am

Tue Jul 28, 10:04am

Tue Jul 28, 9:04am

Tue Jul 28, 8:04am

Tue Jul 28, 7:04am

Tue Jul 28, 6:04am

Tue Jul 28, 5:04am

Tue Jul 28, 4:04am

Tue Jul 28, 3:04am

Tue Jul 28, 2:04am

Tue Jul 28, 1:04am

Tue Jul 28, 12:05am

Mon Jul 27, 11:04pm

Mon Jul 27, 10:05pm

Mon Jul 27, 9:05pm

Mon Jul 27, 8:04pm

Mon Jul 27, 7:04pm

Mon Jul 27, 6:05pm

Mon Jul 27, 5:05pm

Mon Jul 27, 4:04pm

Mon Jul 27, 3:04pm

Mon Jul 27, 2:04pm

Mon Jul 27, 1:04pm

Mon Jul 27, 12:04pm

Mon Jul 27, 11:04am

Mon Jul 27, 10:04am

Mon Jul 27, 9:04am

Mon Jul 27, 8:04am

Meta data:

ID: 43e82e01-2354-48ed-a3d2-874a3d04e16a
Link: https://api.weather.gov/products/43e82e01-2354-48ed-a3d2-874a3d04e16a